Orbital Elements at Epoch 2459000.5 (2020-May-31.0) TDB
Reference: JPL 27 (heliocentric ecliptic J2000)
Element | Value | Uncertainty (1-sigma) | Units |
e | .2507144646972824 | 4.2155e-08 | |
a | 2.710074604864529 | 9.532e-09 | au |
q | 2.03061970101622 | 1.1284e-07 | au |
i | 9.263851253172637 | 5.0595e-06 | deg |
node | 233.1030553376442 | 2.2752e-05 | deg |
peri | 133.5080318209651 | 2.4334e-05 | deg |
M | 68.99339218204487 | 8.3262e-06 | deg |
tp | 2458688.197619699741 (2019-Jul-23.69761970) | 3.728e-05 | TDB |
period | 1629.55977887622 4.46 | 8.5974e-06 2.354e-08 | d yr |
n | .2209185601330095 | 1.1655e-09 | deg/d |
Q | 3.389529508712839 | 1.1922e-08 | au |
|
| | Orbit Determination Parameters
Additional Information
|